OpenBCM V1.07b12 (Linux)

Packet Radio Mailbox

DB0FHN

[JN59NK Nuernberg]

 Login: GUEST





  
I0OJJ  > KEPS     11.02.25 06:03l 336 Lines 15903 Bytes #999 (0) @ AMSAT
BID : ORB25042.1
Read: DL5MBW DJ6UX GUEST
Subj: 2Line Orbital Elements 25042.AMSAT
Path: DB0FHN<DB0LHR<OK1TOR<OE2XZR<OE5XBL<OE6XPE<DB0ERF<IZ3LSV<I0OJJ<I0OJJ
Sent: 250211/0345z @:I0OJJ.ITA.EU [Rome] obcm1.08-6-g5b69

>From i0ojj%i0ojj.ita.eu@i0ojj.ampr.org Tue Feb 11 04:45:08 2025
Received: from i0ojj.ampr.org by i0ojj.ampr.org (JNOS2.0p.6) with SMTP
	id AA17020746 ; Tue, 11 Feb 2025 04:45:08 +0100
Message-Id: <ORB25042.1@i0ojj.bbs>
>From: i0ojj@i0ojj.ita.eu
X-JNOS-User-Port: Uplink   (I0OJJ-2 on port hub)  ->  Sending message

From: I0OJJ @ I0OJJ.ITA.EU (Gustavo)
To:   KEPS @ AMSAT
X-Info: This message was generated automatically


QST de W1STR

AMSAT Orbital Elements for Amateur Satellites in TLE Format
>From Orbital Analysis Office
New England Sci-Tech STEM Education Center
Natick, MA February 11, 2025
To all radio amateurs


These element sets describe the orbits of various satellites 
in use by the amateur radio community. For details see:
www.amsat.org/keplerian-elements-formats/

A daily update of element sets is available at:
www.amsat.org/tle/daily-bulletin.txt
or without bulletin text:
www.amsat.org/tle/dailytle.txt


AO-07
1 07530U 74089B   25041.59823138 -.00000018  00000-0  17578-3 0  9995
2 07530 101.9934  44.5957 0012141 350.5610 123.2369 12.53686051298919
UO-11
1 14781U 84021B   25041.46147634  .00003852  00000-0  41837-3 0  9997
2 14781  97.7387  10.3519 0008410  22.3996 337.7586 14.88665922183919
AO-27
1 22825U 93061C   25041.40280330  .00000302  00000-0  13251-3 0  9990
2 22825  98.7550 102.2752 0009485 101.4164 258.8084 14.30726266636677
FO-29
1 24278U 96046B   25041.49311063  .00000015  00000-0  54456-4 0  9991
2 24278  98.5875 310.9898 0349027 291.1548  65.2628 13.53236718406660
NOAA-15
1 25338U 98030A   25041.74727381  .00000371  00000-0  17064-3 0  9994
2 25338  98.5485  69.6679 0010001 353.3578   6.7468 14.26880107391451
GO-32
1 25397U 98043D   25041.47774783  .00000266  00000-0  13540-3 0  9999
2 25397  98.9566  18.2010 0001467 147.4572 212.6697 14.24251276381336
ISS
1 25544U 98067A   25041.63172806  .00015560  00000-0  28014-3 0  9990
2 25544  51.6375 213.8505 0003757 296.8382 154.6248 15.49990038495537
NO-44
1 26931U 01043C   25041.46700113  .00000463  00000-0  20461-3 0  9992
2 26931  67.0499  75.7849 0006059 263.7889  96.2522 14.31614366220051
SO-50
1 27607U 02058C   25041.59966965  .00002772  00000-0  37061-3 0  9992
2 27607  64.5526 207.6244 0041965   4.2647 355.8807 14.80926044191606
CO-55
1 27844U 03031E   25041.57476454  .00000761  00000-0  35162-3 0  9990
2 27844  98.6788  51.3789 0009908 166.6137 193.5306 14.23812998121707
CO-57
1 27848U 03031J   25041.74971545  .00000650  00000-0  30696-3 0  9998
2 27848  98.6815  51.6448 0009490 182.7426 177.3702 14.23174812121518
RS-22
1 27939U 03042A   25041.79878822  .00002640  00000-0  43111-3 0  9997
2 27939  98.3127 208.5016 0012083  30.4988  81.5107 14.71740601143359
NOAA-18
1 28654U 05018A   25041.77830096  .00000385  00000-0  22774-3 0  9992
2 28654  98.8521 122.5617 0015169 106.6334 253.6505 14.13511843 16968
CO-58
1 28895U 05043F   25041.11162454  .00003993  00000-0  67129-3 0  9992
2 28895  98.2279 184.1718 0014352 328.4961  31.5384 14.70127222 29383
CO-65
1 32785U 08021C   25041.53791541  .00010827  00000-0  82698-3 0  9997
2 32785  97.7670  12.1031 0008914 255.3303 104.6933 15.02115624911266
AAUSAT2
1 32788U 08021F   25041.53246597  .00102229  00000-0  20000-2 0  9992
2 32788  97.6050  33.0172 0007246  81.0960 279.1109 15.47023349914759
CO-66
1 32791U 08021J   25041.67401412  .00021333  00000-0  11836-2 0  9993
2 32791  97.7174  19.5428 0003656 180.7317 179.3909 15.13774793912552
RS-30
1 32953U 08025A   25041.77547172  .00000040  00000-0  21863-3 0  9996
2 32953  82.5042 301.0884 0019012 307.2605  52.6740 12.43158523758777
NOAA-19
1 33591U 09005A   25041.76538357  .00000328  00000-0  19935-3 0  9994
2 33591  99.0144 105.7287 0013297 343.1194  16.9534 14.13281929825325
SRMSAT
1 37841U 11058D   25041.54744131  .00000633  00000-0  20047-3 0  9997
2 37841  19.9709 154.8271 0011618 195.2486 262.0479 14.11358326688275
ZACUBE-1
1 39417U 13066B   25041.84331020  .00009219  00000-0  83993-3 0  9999
2 39417  97.7660 359.7596 0048249  88.4904 272.1843 14.94466865607165
Delfi-N3xt
1 39428U 13066N   25041.53362951  .00015090  00000-0  16321-2 0  9998
2 39428  97.8385 320.7415 0090855  32.9997 327.6843 14.85352333601564
GOMX-1
1 39430U 13066Q   25041.69082503  .00004454  00000-0  70713-3 0  9998
2 39430  97.7003 267.5912 0133485 212.3042 146.9939 14.66767549597970
LO-74
1 39440U 13066AA  25041.81134503  .00007068  00000-0  74618-3 0  9993
2 39440  97.8382 347.4310 0063233 210.1050 149.6526 14.88093612604967
AO-73
1 39444U 13066AE  25041.81737167  .00014006  00000-0  11337-2 0  9990
2 39444  97.7489   3.7561 0043499  65.9078 294.6686 14.99105088606363
DTUSAT-2
1 40030U 14033W   25041.36991109  .00015271  00000-0  10704-2 0  9998
2 40030  98.0420   7.7724 0012092 100.9840 259.2746 15.05249647578441
EO-80
1 40032U 14033Y   25041.46329180  .00015290  00000-0  10697-2 0  9997
2 40032  98.0290   7.6852 0010514  51.8701 308.3470 15.05333980578439
XW-2C
1 40906U 15049H   25041.81275906  .01090791  71181-3  12735-2 0  9996
2 40906  97.4418  77.1345 0004106 174.0706 186.0626 16.08923599521691
LILACSAT-2
1 40908U 15049K   25041.79684304  .00018112  00000-0  53922-3 0  9990
2 40908  97.5162  59.5472 0008810 216.3709 143.6935 15.34728337519986
IO-86
1 40931U 15052B   25038.81889873  .00001817  00000-0  15548-3 0  9993
2 40931   6.0001 108.1159 0012838 187.7041 172.2889 14.78568669506492
Horyu-4
1 41340U 16012D   25041.55392964  .00030492  00000-0  10351-2 0  9997
2 41340  30.9968 208.1349 0005934 269.6248  90.3715 15.29294516494505
Lapan A3
1 41603U 16040E   25041.80291262  .00005804  00000-0  21181-3 0  9990
2 41603  97.1390  51.1635 0010530 343.1560  16.9329 15.28458634479632
CAS-2T
1 41847U 16066G   25041.43784967  .00003986  00000-0  57667-3 0  9993
2 41847  98.4337 116.9215 0348395 178.6175 181.6065 14.42898704433837
CAS-4B
1 42759U 17034B   25041.77704437  .00048322  00000-0  92841-3 0  9999
2 42759  43.0121 301.3248 0016533 187.4220 172.6397 15.47047828424105
CAS-4A
1 42761U 17034D   25041.80809629  .00052341  00000-0  98835-3 0  9990
2 42761  43.0156 299.1077 0017947 193.6269 166.4108 15.47489729424125
TechnoSat
1 42829U 17042E   25041.39053358  .00006594  00000-0  53005-3 0  9997
2 42829  97.3892 215.8732 0012091 338.7228  21.3492 15.00268941412845
AO-91
1 43017U 17073E   25041.58184692  .00015467  00000-0  84060-3 0  9992
2 43017  97.5498 275.4526 0181377 211.2790 147.7544 15.01503365391339
S-Net D
1 43186U 18014G   25041.48895657  .00010781  00000-0  67183-3 0  9995
2 43186  97.5738 305.7036 0007736 275.9223  84.1124 15.09709596384398
S-Net B
1 43187U 18014H   25041.29412131  .00010318  00000-0  64343-3 0  9998
2 43187  97.5744 305.4765 0008400 270.8863  89.1403 15.09692084384360
S-Net A
1 43188U 18014J   25041.29087502  .00010515  00000-0  65530-3 0  9997
2 43188  97.5751 305.6087 0008361 271.9281  88.0991 15.09710568384368
S-Net C
1 43189U 18014K   25041.69393478  .00009300  00000-0  58017-3 0  9996
2 43189  97.5767 306.0005 0009903 261.0759  98.9349 15.09695822382971
Ten-Koh
1 43677U 18084G   25041.72959969  .00005860  00000-0  48386-3 0  9997
2 43677  98.0826 209.2846 0011183 304.0276  55.9883 14.99342373342427
PO-101
1 43678U 18084H   25041.74789579  .00003675  00000-0  32242-3 0  9994
2 43678  98.0914 213.4706 0007739 328.6061  31.4697 14.97272275342595
QO-100
1 43700U 18090A   25041.54673903  .00000133  00000-0  00000-0 0  9998
2 43700   0.0153 100.3656 0001318 228.3662  34.6799  1.00272581 22747
MinXSS-2
1 43758U 18099A   25041.15627329  .00026128  00000-0  12123-2 0  9991
2 43758  97.5203 107.1772 0012789 211.8889 148.1572 15.19946999338794
AO-95
1 43770U 18099N   25041.15194550  .00015866  00000-0  88454-3 0  9998
2 43770  97.5115 100.7301 0010265 265.9591  94.0467 15.13623467338466
RANGE-A
1 43773U 18099R   25041.71269419  .00007616  00000-0  50983-3 0  9990
2 43773  97.4678  93.5897 0010578 235.5369 124.4860 15.07150483338308
MOVE-II
1 43780U 18099Y   25041.17792907  .00083805  00000-0  20008-2 0  9999
2 43780  97.4851 111.2824 0004027 218.2658 141.8303 15.41209305339232
SNUSat 2
1 43782U 18099AA  25041.12071792  .00012974  00000-0  76656-3 0  9998
2 43782  97.4796  98.3723 0012402 201.5313 158.5397 15.11557959338431
SnugLite
1 43784U 18099AC  25041.40491004  .00017633  00000-0  97516-3 0  9998
2 43784  97.4614  98.0191 0003353 189.0642 171.0529 15.13927858338582
ITASat 1
1 43786U 18099AE  25041.40705350  .00012544  00000-0  76652-3 0  9996
2 43786  97.4767  98.4778 0013745 256.0668 103.9033 15.10331246338454
EAGLET 1
1 43790U 18099AJ  25041.73162865  .00007142  00000-0  47667-3 0  9997
2 43790  97.4956  99.0788 0011358 232.7196 127.2997 15.07276645338154
ESEO
1 43792U 18099AL  25041.57285701  .00003008  00000-0  23509-3 0  9992
2 43792  97.4617  93.7135 0010189 195.5208 164.5706 15.01772817337953
CSIM
1 43793U 18099AM  25041.16443360  .00094140  00000-0  22425-2 0  9997
2 43793  97.5026 113.2344 0007450 196.0747 164.0264 15.41214648339076
JO-97
1 43803U 18099AX  25041.40807307  .00020677  00000-0  10634-2 0  9994
2 43803  97.4861 101.7871 0007886 192.9775 167.1257 15.16450382338681
Suomi 100
1 43804U 18099AY  25041.12265155  .00017758  00000-0  96052-3 0  9998
2 43804  97.4929 101.0839 0013040 198.7200 161.3554 15.14649770338595
ISAT
1 43879U 18111D   25041.47138537  .00032114  00000-0  13661-2 0  9993
2 43879  97.6044 313.7758 0007715 252.0219 108.0176 15.22923754335529
UWE-4
1 43880U 18111E   25041.71648786  .00023323  00000-0  10722-2 0  9991
2 43880  97.5981 313.2124 0011197 266.0441  93.9513 15.20307622333537
Sparrow
1 43881U 18111F   25041.20791309  .00033053  00000-0  13709-2 0  9995
2 43881  97.6170 315.9765 0005874 309.2945  50.7771 15.23785826335564
